Location: Kosice
(0.0000°N, 21.2500°E)
Time: 06:03:17
(UTC+01:00)

Meteor 2-21 - Pass Details

Date: 24 January 2021
Orbit: 934 x 966 km, 82.6° (Epoch: 04 March)

Event Time Altitude Azimuth Distance (km) Brightness Sun altitude
Rises 19:06:48 0° 186° (S) 3,589 7.8 -18.8°
Reaches altitude 10° 19:09:17 10° 187° (S) 2,643 7.1 -19.4°
Maximum altitude 19:15:19 79° 273° (W) 954 4.5 -20.8°
Drops below altitude 10° 19:21:21 10° 360° (N) 2,643 6.6 -22.2°
Enters shadow 19:22:45 - 1° (N) 3,178 7.0 -22.5°
